GW5469 Weather Reports


Display with metric or nautical units.
time (UTC)temp
F
wind
direction
speed
MPH
gust
MPH
rain 1hr
in
rain 24hr
in
rain mn
in
humidity
%
barometer
mb
20260504173202 55 301 9.0 11.0 0.00 0.00 0.00 41 1014.3
20260504172658 54 282 11.0 14.0 0.00 0.00 0.00 42 1014.3
20260504172154 55 313 10.0 13.0 0.00 0.00 0.00 41 1014.4
20260504171651 56 291 7.0 8.0 0.00 0.00 0.00 40 1014.4
20260504171148 56 291 10.0 11.0 0.00 0.00 0.00 40 1014.2
20260504170644 55 321 12.0 15.0 0.00 0.00 0.00 40 1014.5
20260504170142 55 316 7.0 8.0 0.00 0.00 0.00 40 1014.3
20260504151028 50 283 6.0 9.0 0.00 0.00 0.00 51 1014.7
20260504150525 50 282 9.0 10.0 0.00 0.00 0.00 50 1014.6
20260504140956 48 267 3.0 3.0 0.00 0.00 0.00 59 1015.1
20260504140453 48 254 4.0 4.0 0.00 0.00 0.00 59 1014.9
20260504130417 46 277 2.0 2.0 0.00 0.00 0.00 62 1014.8
20260504110304 46 305 1.0 2.0 0.00 0.00 0.00 61 1015.2
20260504100222 47 51 3.0 3.0 0.00 0.00 0.00 59 1015.5
20260504081615 50 51 9.0 13.0 0.00 0.00 0.00 48 1014.7
20260504081111 51 35 13.0 16.0 0.00 0.00 0.00 47 1014.3
20260504080608 51 53 11.0 15.0 0.00 0.00 0.00 47 1014.4
20260504080104 51 27 11.0 14.0 0.00 0.00 0.00 45 1013.8
20260504050421 57 10 4.0 4.0 0.00 0.00 0.00 37 1008.7
20260504045918 57 0 5.0 6.0 0.00 0.00 0.00 37 1008.7
20260504045413 57 18 6.0 7.0 0.00 0.00 0.00 37 1008.6
20260504044910 57 27 4.0 4.0 0.00 0.00 0.00 36 1008.4
20260504044408 58 29 5.0 6.0 0.00 0.00 0.00 35 1008.5
20260504043905 58 14 5.0 6.0 0.00 0.00 0.00 35 1008.4
20260504043401 58 36 6.0 7.0 0.00 0.00 0.00 36 1008.0
20260504042859 58 11 5.0 6.0 0.00 0.00 0.00 36 1007.9
20260504042355 57 16 4.0 4.0 0.00 0.00 0.00 37 1007.8
20260504041852 57 30 3.0 3.0 0.00 0.00 0.00 38 1007.7
20260504041348 59 49 3.0 4.0 0.00 0.00 0.00 38 1007.6
20260504040844 59 34 6.0 7.0 0.00 0.00 0.00 34 1007.6
20260504040342 59 32 5.0 7.0 0.00 0.00 0.00 34 1007.3
20260504035837 59 47 7.0 8.0 0.00 0.00 0.00 32 1007.3
20260504035336 60 4 6.0 7.0 0.00 0.00 0.00 31 1007.4
20260504034832 61 29 6.0 7.0 0.00 0.00 0.00 31 1006.9
20260504034330 60 33 8.0 9.0 0.00 0.00 0.00 30 1007.1
20260504033826 58 21 4.0 6.0 0.00 0.00 0.00 32 1007.2
20260504033325 54 282 1.0 2.0 0.00 0.00 0.00 35 1006.7
20260504032821 55 327 2.0 2.0 0.00 0.00 0.00 34 1006.6
20260504032318 54 250 1.0 1.0 0.00 0.00 0.00 35 1006.4
20260504031815 55 243 2.0 2.0 0.00 0.00 0.00 35 1006.4
20260504031312 57 246 2.0 2.0 0.00 0.00 0.00 35 1006.2
20260504030808 58 285 1.0 1.0 0.00 0.00 0.00 31 1006.1
20260504030306 59 290 0.0 1.0 0.00 0.00 0.00 30 1006.1
20260504025801 60 294 1.0 1.0 0.00 0.00 0.00 29 1005.7
20260504025259 60 332 0.0 0.0 0.00 0.00 0.00 28 1006.0
20260504024755 61 49 1.0 2.0 0.00 0.00 0.00 27 1005.7
20260504024252 61 42 0.0 0.0 0.00 0.00 0.00 28 1006.0
20260504023749 62 317 0.0 0.0 0.00 0.00 0.00 29 1005.6
20260504023245 63 331 0.0 0.0 0.00 0.00 0.00 26 1005.7
20260504022741 64 343 2.0 2.0 0.00 0.00 0.00 25 1005.6
20260504022238 65 333 1.0 2.0 0.00 0.00 0.00 25 1005.7
20260504021735 66 357 2.0 2.0 0.00 0.00 0.00 24 1005.6
20260504021232 67 335 1.0 1.0 0.00 0.00 0.00 23 1005.5
20260504020729 67 354 2.0 2.0 0.00 0.00 0.00 23 1005.5
20260504020225 69 10 3.0 3.0 0.00 0.00 0.00 22 1005.4
20260504015722 70 10 4.0 4.0 0.00 0.00 0.00 21 1005.5
20260504015218 71 6 6.0 7.0 0.00 0.00 0.00 20 1005.4
20260504014714 72 351 4.0 6.0 0.00 0.00 0.00 20 1005.6
20260504014211 72 343 4.0 4.0 0.00 0.00 0.00 20 1005.4
20260504013709 73 344 4.0 6.0 0.00 0.00 0.00 19 1005.4
20260504013206 73 341 5.0 6.0 0.00 0.00 0.00 19 1005.6
20260504012702 73 17 7.0 8.0 0.00 0.00 0.00 18 1005.2
20260504012200 74 8 5.0 7.0 0.00 0.00 0.00 18 1005.5
20260504011657 75 6 6.0 9.0 0.00 0.00 0.00 18 1005.5
20260504011153 75 329 7.0 8.0 0.00 0.00 0.00 17 1005.4
20260504010649 76 309 4.0 4.0 0.00 0.00 0.00 17 1005.3
20260504010145 76 328 6.0 7.0 0.00 0.00 0.00 17 1005.3
20260504005642 76 339 7.0 8.0 0.00 0.00 0.00 17 1005.4
20260504005139 76 285 6.0 7.0 0.00 0.00 0.00 16 1005.5
20260504004637 77 308 3.0 3.0 0.00 0.00 0.00 17 1005.7
20260504004134 76 309 5.0 7.0 0.00 0.00 0.00 16 1005.8
20260504003630 76 315 9.0 14.0 0.00 0.00 0.00 17 1005.8
20260504003127 76 307 7.0 9.0 0.00 0.00 0.00 17 1005.7
20260504002624 77 300 6.0 7.0 0.00 0.00 0.00 16 1006.0
20260504002121 77 315 5.0 6.0 0.00 0.00 0.00 16 1006.0
20260504001619 77 318 6.0 7.0 0.00 0.00 0.00 16 1006.0
20260504001114 76 307 5.0 6.0 0.00 0.00 0.00 16 1006.1
20260504000612 76 303 3.0 4.0 0.00 0.00 0.00 17 1006.0
20260504000110 76 323 4.0 6.0 0.00 0.00 0.00 16 1006.1
20260503235608 77 333 9.0 10.0 0.00 0.00 0.00 16 1006.2
20260503235104 77 313 8.0 9.0 0.00 0.00 0.00 16 1006.2
20260503234602 77 296 8.0 10.0 0.00 0.00 0.00 16 1006.1
20260503234100 77 327 10.0 10.0 0.00 0.00 0.00 16 1006.2
20260503233556 77 322 5.0 6.0 0.00 0.00 0.00 15 1006.3
20260503233052 76 307 5.0 6.0 0.00 0.00 0.00 16 1006.4
20260503232549 76 259 1.0 1.0 0.00 0.00 0.00 16 1006.3
20260503232047 77 271 10.0 15.0 0.00 0.00 0.00 15 1006.5
20260503231545 77 255 5.0 6.0 0.00 0.00 0.00 15 1006.4
20260503231041 76 306 6.0 7.0 0.00 0.00 0.00 16 1006.3
20260503230537 76 270 5.0 6.0 0.00 0.00 0.00 16 1006.5
20260503230035 77 303 8.0 10.0 0.00 0.00 0.00 15 1006.4
20260503225532 76 302 10.0 13.0 0.00 0.00 0.00 15 1006.5
20260503225027 77 289 9.0 11.0 0.00 0.00 0.00 15 1006.6
20260503224525 77 285 6.0 8.0 0.00 0.00 0.00 16 1006.7
20260503224022 76 280 4.0 6.0 0.00 0.00 0.00 15 1006.8
20260503223520 76 296 11.0 15.0 0.00 0.00 0.00 15 1006.8
20260503223015 76 301 10.0 13.0 0.00 0.00 0.00 15 1006.7
20260503222514 76 339 2.0 2.0 0.00 0.00 0.00 15 1006.9
20260503222012 76 336 8.0 10.0 0.00 0.00 0.00 15 1007.1
20260503221510 76 309 11.0 13.0 0.00 0.00 0.00 15 1007.2
20260503221007 77 303 4.0 6.0 0.00 0.00 0.00 16 1007.1
20260503220503 77 310 7.0 11.0 0.00 0.00 0.00 15 1007.2
20260503215959 75 336 4.0 6.0 0.00 0.00 0.00 15 1007.2
20260503215457 76 314 11.0 16.0 0.00 0.00 0.00 16 1007.3
20260503214954 76 292 10.0 14.0 0.00 0.00 0.00 15 1007.7
20260503214452 75 291 8.0 11.0 0.00 0.00 0.00 16 1007.5
20260503213949 75 282 12.0 17.0 0.00 0.00 0.00 15 1007.5
20260503213447 75 273 4.0 6.0 0.00 0.00 0.00 15 1007.8
20260503212943 75 290 4.0 4.0 0.00 0.00 0.00 15 1007.7
20260503212441 75 281 1.0 2.0 0.00 0.00 0.00 15 1007.9
20260503211938 75 284 7.0 8.0 0.00 0.00 0.00 16 1008.0
20260503211435 76 257 6.0 8.0 0.00 0.00 0.00 16 1008.0
20260503210930 75 301 7.0 8.0 0.00 0.00 0.00 16 1008.3
20260503210427 75 310 8.0 13.0 0.00 0.00 0.00 16 1008.4
20260503205922 74 265 7.0 8.0 0.00 0.00 0.00 16 1008.0
20260503205420 75 274 7.0 8.0 0.00 0.00 0.00 16 1008.5
20260503204915 75 301 6.0 8.0 0.00 0.00 0.00 16 1008.4
20260503204413 74 313 2.0 3.0 0.00 0.00 0.00 17 1008.5
20260503203910 75 2 6.0 8.0 0.00 0.00 0.00 17 1008.6
20260503203407 75 292 6.0 7.0 0.00 0.00 0.00 16 1008.7
20260503202904 73 296 9.0 11.0 0.00 0.00 0.00 17 1008.8
20260503202402 75 307 7.0 9.0 0.00 0.00 0.00 18 1008.9
20260503201900 74 305 9.0 11.0 0.00 0.00 0.00 18 1008.8
20260503201357 73 304 6.0 8.0 0.00 0.00 0.00 18 1008.8
20260503200855 74 314 7.0 8.0 0.00 0.00 0.00 18 1009.1
20260503200350 73 288 8.0 9.0 0.00 0.00 0.00 17 1008.9
20260503195848 74 309 8.0 9.0 0.00 0.00 0.00 18 1009.2
20260503195344 73 309 7.0 8.0 0.00 0.00 0.00 19 1009.2
20260503194841 72 266 2.0 3.0 0.00 0.00 0.00 19 1009.2
20260503194337 73 245 11.0 13.0 0.00 0.00 0.00 18 1009.4
20260503193834 73 305 9.0 11.0 0.00 0.00 0.00 18 1009.7
20260503193330 73 282 10.0 13.0 0.00 0.00 0.00 18 1009.5
20260503192826 72 320 7.0 8.0 0.00 0.00 0.00 20 1009.5
20260503192321 72 274 13.0 17.0 0.00 0.00 0.00 19 1009.7
20260503191818 72 341 10.0 13.0 0.00 0.00 0.00 19 1009.9
20260503191315 73 294 8.0 10.0 0.00 0.00 0.00 20 1009.8
20260503190812 72 324 5.0 7.0 0.00 0.00 0.00 21 1009.9
20260503190309 71 251 7.0 9.0 0.00 0.00 0.00 21 1009.9
20260503185806 72 278 14.0 17.0 0.00 0.00 0.00 21 1010.0
20260503185301 71 310 6.0 7.0 0.00 0.00 0.00 21 1009.9
20260503184801 71 258 10.0 14.0 0.00 0.00 0.00 22 1010.3
20260503184258 72 291 6.0 8.0 0.00 0.00 0.00 21 1010.3
20260503183754 71 266 5.0 7.0 0.00 0.00 0.00 22 1010.6
20260503183252 71 287 11.0 13.0 0.00 0.00 0.00 21 1010.1
20260503182749 71 259 4.0 6.0 0.00 0.00 0.00 22 1010.5
20260503182248 70 273 6.0 8.0 0.00 0.00 0.00 22 1010.6
20260503181744 71 283 3.0 3.0 0.00 0.00 0.00 22 1010.8
20260503181241 72 257 11.0 13.0 0.00 0.00 0.00 23 1010.5
20260503180738 71 303 1.0 2.0 0.00 0.00 0.00 22 1010.8
20260503180236 70 269 8.0 10.0 0.00 0.00 0.00 23 1010.8
20260503175732 70 319 4.0 4.0 0.00 0.00 0.00 23 1010.8
20260503175230 69 274 4.0 6.0 0.00 0.00 0.00 24 1010.9
20260503174726 70 241 4.0 6.0 0.00 0.00 0.00 24 1011.0
20260503174224 69 346 7.0 8.0 0.00 0.00 0.00 24 1010.9
20260503173724 70 314 7.0 10.0 0.00 0.00 0.00 24 1011.0